Location: Asheville, NC
(35.6000°N, 82.5500°W)
Time: 00:23:36
(UTC-04:00)

Tiangong 2 - Visible Passes

Search period start: 21 June 2018 00:00
Search period end: 01 July 2018 00:00
Orbit: 291 x 297 km, 42.8° (Epoch: 20 June)

Date Brightness Start Highest point End Pass type
(mag) Time Alt. Az. Time Alt. Az. Time Alt. Az.
25 Jun 3.1 04:40:07 13° SE 04:40:07 13° SE 04:41:15 10° ESE visible
26 Jun 1.8 04:45:30 27° SSE 04:45:37 28° SE 04:47:52 10° E visible
27 Jun 0.5 04:50:45 51° SSW 04:51:12 69° SSE 04:53:44 10° ENE visible
28 Jun 1.1 04:55:53 31° W 04:56:48 51° NNW 04:59:17 10° NE visible
29 Jun 2.2 05:00:53 16° WNW 05:02:22 28° NNW 05:04:39 10° NE visible
30 Jun 4.1 03:35:29 11° ENE 03:35:29 11° ENE 03:35:34 10° ENE visible
30 Jun 2.9 05:05:55 10° WNW 05:07:55 20° NNW 05:09:55 10° NE visible
